This is the latest recevied weather packets stored in our database for station/object DJ3AN. If no packets are shown the sender has not sent any weather packets the latest 10 day(s).
| Time | Temp. | Humidity | Pressure | Rain* | Wind** | Luminosity | Snow |
|---|---|---|---|---|---|---|---|
| 1777942207 | 10.56° C | 93% | 1011.8 hPa | 1.52 mm | - | - | - |
| 1777941906 | 10.56° C | 93% | 1011.7 hPa | 1.78 mm | - | - | - |
| 1777941606 | 10.56° C | 93% | 1011.8 hPa | 1.78 mm | - | - | - |
| 1777941306 | 10.56° C | 92% | 1011.9 hPa | 2.29 mm | - | - | - |
| 1777941006 | 10.56° C | 92% | 1011.9 hPa | 2.29 mm | - | - | - |
| 1777940706 | 11.11° C | 92% | 1012 hPa | 2.03 mm | - | - | - |
| 1777940405 | 11.11° C | 91% | 1012 hPa | 2.03 mm | - | - | - |
| 1777940106 | 11.11° C | 91% | 1012.1 hPa | 1.78 mm | - | - | - |
| 1777939806 | 11.11° C | 91% | 1012.2 hPa | 1.78 mm | - | - | - |
| 1777939506 | 11.11° C | 90% | 1012.3 hPa | 1.78 mm | - | - | - |
| 1777939206 | 11.11° C | 90% | 1012.3 hPa | 1.52 mm | - | - | - |
| 1777938906 | 11.11° C | 89% | 1012.4 hPa | 1.52 mm | - | - | - |
| 1777938607 | 11.11° C | 89% | 1012.3 hPa | 1.52 mm | - | - | - |
| 1777938306 | 11.11° C | 88% | 1012.4 hPa | 1.27 mm | - | - | - |
| 1777938006 | 11.11° C | 87% | 1012.5 hPa | 1.02 mm | - | - | - |
| 1777937706 | 11.11° C | 87% | 1012.5 hPa | 0.25 mm | - | - | - |
| 1777937406 | 11.11° C | 87% | 1012.5 hPa | 0 mm | - | - | - |
| 1777937106 | 11.11° C | 86% | 1012.5 hPa | 0 mm | - | - | - |
| 1777936806 | 11.11° C | 86% | 1012.6 hPa | 0 mm | - | - | - |
| 1777936506 | 11.11° C | 87% | 1012.5 hPa | 0 mm | - | - | - |
| 1777936206 | 11.11° C | 86% | 1012.6 hPa | 0 mm | - | - | - |
| 1777935906 | 11.11° C | 86% | 1012.5 hPa | 0 mm | - | - | - |
| 1777935606 | 11.11° C | 86% | 1012.2 hPa | 0 mm | - | - | - |
| 1777935306 | 11.11° C | 86% | 1012.2 hPa | 0 mm | - | - | - |
| 1777935007 | 11.11° C | 87% | 1012.3 hPa | 0 mm | - | - | - |
* Rain latest hour (hover to see other rain measurements)
** Current wind speed in m/s (hover to see current wind gust speed)